Tracking 19245 objects as of 19-Aug-2018
HD Live streaming from Space Station
objects crossing your sky now

OPS 5113 (NAVSTAR 3)

Track OPS 5113 (NAVSTAR 3) now!
OPS 5113 (NAVSTAR 3) is classified as:


NORAD ID: 11054
Int'l Code: 1978-093A
Perigee: 20,593.1 km
Apogee: 21,069.9 km
Inclination: 64.0 °
Period: 744.2 minutes
Semi major axis: 27202 km
RCS: 0.5283 m2 (medium)
Launch date: October 7, 1978
Source: United States (US)
Launch site: AIR FORCE WESTERN TEST RANGE (AFWTR)
aabbcc
Your satellite tracking list
Your tracking list is empty




NASA's NSSDC Master Catalog

Two Line Element Set (TLE):
1 11054U 78093A   18230.81817816 -.00000057  00000-0  00000+0 0  9994
2 11054  64.0078  23.8455 0087639 230.8207  28.6981  1.93503396285334
Source of the keplerian elements: AFSPC